Tracking 32941 objects as of 15-Jan-2026
HD Live streaming from Space Station
objects crossing your sky now

STARLINK-33879

Track STARLINK-33879 now!
10-day predictions
STARLINK-33879 is classified as:


NORAD ID: 63634
Int'l Code: 2025-083A
Perigee: 489.2 km
Apogee: 491.1 km
Inclination: 43.0 °
Period: 94.3 minutes
Semi major axis: 6861 km
RCS: Unknown
Launch date: April 25, 2025
Source: United States (US)
Launch site: AIR FORCE EASTERN TEST RANGE (AFETR)
Your satellite tracking list
Your tracking list is empty




NASA's NSSDC Master Catalog

Two Line Element Set (TLE):
1 63634U 25083A   26014.88184653  .00015553  00000-0  57330-3 0  9996
2 63634  43.0015 309.4354 0001394 266.1335  93.9358 15.27592174 41834
Source of the keplerian elements: AFSPC